| time (UTC) | temp F | wind direction | speed knots | gust knots | rain 1hr in | rain 24hr in | rain mn in | humidity % | barometer mb |
| 20260508071003 | 40 | 12 | 2.6 | 5.2 | 0.04 | 0.28 | 0.05 | 97 | 1013.1 |
| 20260508070003 | 40 | 206 | 1.7 | 6.1 | 0.04 | 0.28 | 0.05 | 97 | 1013.3 |
| 20260508065004 | 40 | 90 | 1.7 | 4.3 | 0.02 | 0.27 | 0.04 | 97 | 1013.1 |
| 20260508064003 | 40 | 75 | 2.6 | 9.6 | 0.01 | 0.26 | 0.02 | 97 | 1013.0 |
| 20260508063215 | 40 | 71 | 3.5 | 9.6 | 0.01 | 0.26 | 0.02 | 97 | 1012.7 |
| 20260508062003 | 40 | 223 | 2.6 | 7.0 | 0.00 | 0.25 | 0.01 | 97 | 1012.4 |
| 20260508061217 | 40 | 203 | 3.5 | 7.8 | 0.00 | 0.25 | 0.01 | 97 | 1012.4 |
| 20260508060003 | 40 | 222 | 2.6 | 7.0 | 0.00 | 0.25 | 0.01 | 97 | 1012.3 |
| 20260508055004 | 40 | 136 | 2.6 | 7.0 | 0.00 | 0.25 | 0.01 | 97 | 1012.3 |
| 20260508054003 | 40 | 227 | 2.6 | 6.1 | 0.00 | 0.25 | 0.01 | 97 | 1012.1 |
| 20260508053004 | 40 | 58 | 1.7 | 5.2 | 0.00 | 0.25 | 0.01 | 97 | 1012.3 |
| 20260508052217 | 40 | 123 | 2.6 | 7.0 | 0.01 | 0.25 | 0.01 | 96 | 1012.2 |
| 20260508051004 | 40 | 334 | 3.5 | 9.6 | 0.01 | 0.25 | 0.01 | 96 | 1012.2 |
| 20260508050214 | 40 | 274 | 1.7 | 10.4 | 0.01 | 0.25 | 0.01 | 96 | 1012.1 |
| 20260508045215 | 40 | 320 | 3.5 | 7.0 | 0.01 | 0.25 | 0.01 | 96 | 1012.3 |
| 20260508044003 | 40 | 53 | 1.7 | 5.2 | 0.01 | 0.25 | 0.01 | 96 | 1012.4 |
| 20260508043004 | 40 | 201 | 3.5 | 12.2 | 0.01 | 0.25 | 0.01 | 96 | 1012.5 |
| 20260508042218 | 40 | 236 | 5.2 | 12.2 | 0.00 | 0.24 | 0.01 | 96 | 1012.5 |
| 20260508041003 | 40 | 177 | 1.7 | 8.7 | 0.00 | 0.24 | 0.00 | 96 | 1012.5 |
| 20260508040004 | 40 | 117 | 2.6 | 7.0 | 0.00 | 0.25 | 0.00 | 96 | 1012.6 |
| 20260508035003 | 40 | 111 | 2.6 | 7.0 | 0.00 | 0.25 | 0.00 | 96 | 1012.7 |
| 20260508034003 | 41 | 182 | 1.7 | 6.1 | 0.00 | 0.25 | 0.00 | 96 | 1012.8 |
| 20260508033004 | 41 | 121 | 3.5 | 6.1 | 0.00 | 0.25 | 0.00 | 96 | 1012.9 |
| 20260508032003 | 41 | 121 | 2.6 | 8.7 | 0.00 | 0.25 | 0.00 | 95 | 1013.1 |
| 20260508031003 | 41 | 117 | 2.6 | 7.0 | 0.00 | 0.25 | 0.00 | 95 | 1013.1 |
| 20260508030215 | 41 | 124 | 1.7 | 5.2 | 0.00 | 0.25 | 0.00 | 95 | 1013.1 |
| 20260508025003 | 41 | 97 | 1.7 | 7.0 | 0.00 | 0.25 | 0.00 | 95 | 1013.0 |
| 20260508024004 | 41 | 119 | 3.5 | 5.2 | 0.00 | 0.25 | 0.00 | 95 | 1013.2 |
| 20260508023213 | 41 | 114 | 1.7 | 7.0 | 0.00 | 0.25 | 0.00 | 95 | 1013.4 |
| 20260508022003 | 41 | 109 | 1.7 | 4.3 | 0.00 | 0.25 | 0.00 | 95 | 1013.4 |
| 20260508021003 | 41 | 66 | 3.5 | 7.0 | 0.00 | 0.25 | 0.00 | 95 | 1013.6 |
| 20260508020004 | 41 | 111 | 1.7 | 3.5 | 0.00 | 0.25 | 0.00 | 95 | 1013.8 |
| 20260508015003 | 40 | 170 | 1.7 | 3.5 | 0.00 | 0.25 | 0.00 | 95 | 1013.8 |
| 20260508014003 | 40 | 108 | 1.7 | 3.5 | 0.00 | 0.25 | 0.00 | 95 | 1013.8 |
| 20260508013004 | 40 | 109 | 0.9 | 3.5 | 0.00 | 0.25 | 0.00 | 95 | 1014.0 |
| 20260508012003 | 40 | 104 | 1.7 | 1.7 | 0.00 | 0.25 | 0.00 | 95 | 1014.3 |
| 20260508011003 | 40 | 91 | 0.9 | 3.5 | 0.00 | 0.25 | 0.00 | 94 | 1014.3 |
| 20260508010004 | 40 | 242 | 0.9 | 3.5 | 0.00 | 0.25 | 0.00 | 95 | 1014.6 |
| 20260508005004 | 41 | 108 | 2.6 | 6.1 | 0.00 | 0.25 | 0.00 | 95 | 1014.3 |
| 20260508004004 | 41 | 108 | 1.7 | 4.3 | 0.00 | 0.25 | 0.00 | 95 | 1014.9 |
| 20260508003005 | 41 | 147 | 1.7 | 3.5 | 0.00 | 0.25 | 0.00 | 95 | 1015.1 |
| 20260508002003 | 41 | 135 | 1.7 | 4.3 | 0.00 | 0.25 | 0.00 | 94 | 1014.9 |
| 20260508001003 | 41 | 121 | 1.7 | 4.3 | 0.00 | 0.25 | 0.00 | 94 | 1014.8 |
| 20260508000003 | 41 | 125 | 2.6 | 4.3 | 0.00 | 0.25 | 0.00 | 94 | 1014.7 |
| 20260507235003 | 41 | 67 | 2.6 | 4.3 | 0.00 | 0.25 | 0.00 | 94 | 1014.8 |
| 20260507234003 | 40 | 132 | 1.7 | 3.5 | 0.00 | 0.25 | 0.00 | 93 | 1014.9 |
| 20260507233003 | 40 | 133 | 0.9 | 2.6 | 0.00 | 0.25 | 0.00 | 93 | 1014.8 |
| 20260507232216 | 40 | 107 | 1.7 | 2.6 | 0.00 | 0.25 | 0.00 | 93 | 1014.8 |
| 20260507231003 | 40 | 282 | 0.9 | 3.5 | 0.00 | 0.25 | 0.00 | 93 | 1015.1 |
| 20260507230004 | 40 | 328 | 1.7 | 3.5 | 0.00 | 0.25 | 0.00 | 93 | 1014.9 |
| 20260507225003 | 41 | 146 | 0.0 | 1.7 | 0.00 | 0.25 | 0.00 | 93 | 1015.3 |
| 20260507224214 | 40 | 146 | 0.9 | 1.7 | 0.00 | 0.25 | 0.00 | 93 | 1015.5 |
| 20260507223215 | 41 | 100 | 0.0 | 3.5 | 0.00 | 0.25 | 0.00 | 93 | 1015.4 |
| 20260507222003 | 41 | 4 | 0.0 | 1.7 | 0.00 | 0.25 | 0.00 | 93 | 1015.5 |
| 20260507221217 | 41 | 0 | 0.0 | 0.0 | 0.00 | 0.25 | 0.00 | 93 | 1015.7 |
| 20260507220004 | 41 | 35 | 0.0 | 2.6 | 0.00 | 0.25 | 0.00 | 93 | 1015.6 |
| 20260507215004 | 41 | 360 | 0.0 | 0.9 | 0.00 | 0.25 | 0.25 | 92 | 1015.8 |
| 20260507214003 | 40 | 360 | 0.0 | 0.9 | 0.00 | 0.25 | 0.25 | 92 | 1015.7 |
| 20260507213003 | 40 | 39 | 0.0 | 1.7 | 0.00 | 0.25 | 0.25 | 92 | 1015.6 |
| 20260507212004 | 40 | 337 | 0.0 | 1.7 | 0.00 | 0.25 | 0.25 | 92 | 1015.6 |
| 20260507211003 | 41 | 0 | 0.0 | 0.0 | 0.00 | 0.25 | 0.25 | 92 | 1015.5 |
| 20260507210004 | 41 | 276 | 0.0 | 0.9 | 0.00 | 0.25 | 0.25 | 92 | 1015.6 |
| 20260507205003 | 41 | 322 | 0.0 | 0.9 | 0.00 | 0.25 | 0.25 | 92 | 1015.4 |
| 20260507204003 | 41 | 321 | 0.0 | 1.7 | 0.00 | 0.25 | 0.25 | 92 | 1015.5 |
| 20260507203004 | 41 | 299 | 0.9 | 1.7 | 0.01 | 0.25 | 0.25 | 91 | 1015.4 |
| 20260507202004 | 41 | 283 | 1.7 | 1.7 | 0.02 | 0.25 | 0.25 | 91 | 1015.1 |
| 20260507201004 | 41 | 303 | 0.0 | 1.7 | 0.12 | 0.25 | 0.25 | 91 | 1015.1 |
| 20260507200003 | 42 | 292 | 0.9 | 1.7 | 0.12 | 0.25 | 0.25 | 91 | 1015.1 |
| 20260507195003 | 42 | 321 | 0.9 | 2.6 | 0.12 | 0.25 | 0.25 | 91 | 1014.9 |
| 20260507194003 | 42 | 250 | 0.9 | 3.5 | 0.12 | 0.25 | 0.25 | 90 | 1014.8 |
| 20260507193003 | 42 | 269 | 1.7 | 3.5 | 0.11 | 0.24 | 0.24 | 88 | 1015.1 |
| 20260507192003 | 42 | 179 | 1.7 | 7.8 | 0.09 | 0.22 | 0.22 | 87 | 1014.7 |
| 20260507191003 | 44 | 326 | 2.6 | 7.8 | 0.00 | 0.13 | 0.13 | 87 | 1014.5 |
| 20260507190004 | 44 | 270 | 1.7 | 6.1 | 0.00 | 0.13 | 0.13 | 86 | 1014.3 |
| 20260507185004 | 44 | 279 | 1.7 | 1.7 | 0.00 | 0.13 | 0.13 | 85 | 1014.5 |
| 20260507184003 | 44 | 198 | 0.9 | 1.7 | 0.00 | 0.13 | 0.13 | 85 | 1014.4 |
| 20260507183003 | 44 | 192 | 0.0 | 1.7 | 0.00 | 0.13 | 0.13 | 84 | 1014.4 |
| 20260507182004 | 45 | 150 | 0.9 | 3.5 | 0.00 | 0.13 | 0.13 | 83 | 1014.2 |
| 20260507181003 | 45 | 137 | 0.9 | 1.7 | 0.04 | 0.13 | 0.13 | 82 | 1013.9 |
| 20260507180004 | 45 | 89 | 0.9 | 2.6 | 0.04 | 0.13 | 0.13 | 81 | 1014.0 |
| 20260507175003 | 46 | 123 | 0.0 | 1.7 | 0.04 | 0.13 | 0.13 | 74 | 1013.9 |
| 20260507174218 | 46 | 76 | 0.0 | 1.7 | 0.04 | 0.13 | 0.13 | 73 | 1014.0 |
| 20260507173213 | 46 | 60 | 0.9 | 4.3 | 0.04 | 0.13 | 0.13 | 71 | 1013.8 |
| 20260507172214 | 47 | 337 | 1.7 | 7.0 | 0.04 | 0.13 | 0.13 | 68 | 1013.7 |
| 20260507171003 | 49 | 195 | 0.0 | 7.0 | 0.00 | 0.11 | 0.09 | 61 | 1014.3 |
| 20260507170004 | 52 | 331 | 0.0 | 1.7 | 0.00 | 0.11 | 0.09 | 60 | 1014.1 |
| 20260507165217 | 53 | 341 | 0.9 | 1.7 | 0.00 | 0.11 | 0.09 | 56 | 1013.6 |
| 20260507164004 | 55 | 318 | 0.0 | 1.7 | 0.01 | 0.11 | 0.09 | 52 | 1013.9 |
| 20260507163003 | 58 | 317 | 0.0 | 2.6 | 0.01 | 0.11 | 0.09 | 50 | 1014.0 |
| 20260507162004 | 57 | 341 | 1.7 | 3.5 | 0.01 | 0.12 | 0.09 | 51 | 1013.8 |
| 20260507161003 | 55 | 340 | 1.7 | 3.5 | 0.01 | 0.12 | 0.09 | 53 | 1014.2 |
| 20260507160003 | 56 | 356 | 1.7 | 4.3 | 0.01 | 0.12 | 0.09 | 52 | 1013.9 |
| 20260507155003 | 58 | 7 | 0.9 | 7.0 | 0.01 | 0.12 | 0.09 | 49 | 1013.9 |
| 20260507154004 | 58 | 310 | 0.9 | 4.3 | 0.00 | 0.11 | 0.08 | 51 | 1014.0 |
| 20260507153004 | 58 | 334 | 1.7 | 3.5 | 0.00 | 0.11 | 0.08 | 50 | 1013.9 |
| 20260507152004 | 58 | 332 | 1.7 | 3.5 | 0.00 | 0.11 | 0.08 | 51 | 1014.1 |
| 20260507151003 | 57 | 312 | 1.7 | 2.6 | 0.00 | 0.11 | 0.08 | 56 | 1014.3 |
| 20260507150004 | 55 | 248 | 1.7 | 4.3 | 0.00 | 0.11 | 0.08 | 60 | 1014.4 |
| 20260507145003 | 53 | 142 | 1.7 | 5.2 | 0.00 | 0.11 | 0.08 | 65 | 1014.4 |
| 20260507144003 | 51 | 203 | 1.7 | 2.6 | 0.00 | 0.11 | 0.08 | 65 | 1014.5 |
| 20260507143004 | 51 | 300 | 0.9 | 3.5 | 0.00 | 0.11 | 0.08 | 67 | 1014.4 |
| 20260507142004 | 48 | 121 | 1.7 | 4.3 | 0.00 | 0.11 | 0.08 | 74 | 1014.6 |
| 20260507141003 | 45 | 125 | 1.7 | 4.3 | 0.00 | 0.11 | 0.08 | 72 | 1014.6 |
| 20260507140004 | 45 | 140 | 2.6 | 4.3 | 0.04 | 0.11 | 0.08 | 72 | 1014.4 |
| 20260507135214 | 45 | 167 | 2.6 | 7.0 | 0.07 | 0.11 | 0.08 | 71 | 1014.3 |
| 20260507134003 | 46 | 172 | 1.7 | 5.2 | 0.07 | 0.11 | 0.08 | 68 | 1014.2 |
| 20260507133216 | 47 | 168 | 3.5 | 5.2 | 0.07 | 0.11 | 0.08 | 72 | 1014.2 |
| 20260507132003 | 45 | 106 | 1.7 | 3.5 | 0.07 | 0.11 | 0.08 | 81 | 1014.4 |
| 20260507131004 | 45 | 158 | 0.9 | 5.2 | 0.07 | 0.11 | 0.08 | 72 | 1014.2 |
| 20260507130003 | 49 | 174 | 3.5 | 5.2 | 0.04 | 0.07 | 0.05 | 60 | 1014.8 |
| 20260507125003 | 55 | 157 | 1.7 | 4.3 | 0.00 | 0.04 | 0.01 | 51 | 1014.4 |
| 20260507124004 | 56 | 159 | 3.5 | 4.3 | 0.00 | 0.04 | 0.01 | 53 | 1014.3 |
| 20260507123003 | 53 | 75 | 1.7 | 3.5 | 0.00 | 0.04 | 0.01 | 59 | 1014.5 |
| 20260507122003 | 53 | 249 | 0.9 | 3.5 | 0.00 | 0.04 | 0.01 | 60 | 1014.7 |
| 20260507121004 | 53 | 148 | 1.7 | 7.0 | 0.00 | 0.04 | 0.01 | 60 | 1014.6 |
| 20260507120004 | 52 | 150 | 3.5 | 4.3 | 0.00 | 0.04 | 0.01 | 59 | 1014.7 |
| 20260507115215 | 53 | 328 | 1.7 | 5.2 | 0.00 | 0.04 | 0.01 | 57 | 1014.7 |
| 20260507114003 | 54 | 118 | 1.7 | 3.5 | 0.00 | 0.04 | 0.01 | 60 | 1014.9 |
| 20260507113003 | 53 | 270 | 1.7 | 3.5 | 0.00 | 0.04 | 0.01 | 66 | 1014.7 |
| 20260507112003 | 51 | 142 | 1.7 | 4.3 | 0.00 | 0.04 | 0.01 | 62 | 1014.8 |
| 20260507111003 | 51 | 224 | 2.6 | 3.5 | 0.00 | 0.04 | 0.01 | 65 | 1014.7 |
| 20260507110003 | 51 | 95 | 1.7 | 3.5 | 0.00 | 0.04 | 0.01 | 61 | 1015.0 |
| 20260507105004 | 53 | 138 | 1.7 | 3.5 | 0.00 | 0.04 | 0.01 | 59 | 1014.6 |
| 20260507104004 | 54 | 161 | 1.7 | 3.5 | 0.00 | 0.04 | 0.01 | 59 | 1014.8 |
| 20260507103004 | 52 | 214 | 1.7 | 5.2 | 0.00 | 0.04 | 0.01 | 60 | 1014.7 |
| 20260507102003 | 55 | 194 | 1.7 | 6.1 | 0.00 | 0.04 | 0.01 | 58 | 1014.6 |
| 20260507101004 | 55 | 337 | 1.7 | 5.2 | 0.00 | 0.04 | 0.01 | 60 | 1014.6 |
| 20260507100004 | 55 | 343 | 1.7 | 3.5 | 0.00 | 0.04 | 0.01 | 60 | 1015.0 |
| 20260507095004 | 53 | 332 | 1.7 | 3.5 | 0.00 | 0.04 | 0.01 | 62 | 1014.7 |
| 20260507094003 | 54 | 126 | 2.6 | 3.5 | 0.00 | 0.04 | 0.01 | 63 | 1014.7 |
| 20260507093003 | 53 | 308 | 1.7 | 3.5 | 0.00 | 0.04 | 0.01 | 67 | 1014.8 |
| 20260507092214 | 53 | 192 | 1.7 | 5.2 | 0.00 | 0.04 | 0.01 | 73 | 1014.6 |
| 20260507091003 | 51 | 266 | 1.7 | 6.1 | 0.00 | 0.04 | 0.01 | 90 | 1014.6 |
| 20260507090004 | 50 | 163 | 0.9 | 3.5 | 0.00 | 0.04 | 0.01 | 95 | 1014.7 |
| 20260507085003 | 47 | 117 | 0.9 | 3.5 | 0.00 | 0.04 | 0.01 | 95 | 1014.4 |
| 20260507084003 | 46 | 107 | 3.5 | 3.5 | 0.00 | 0.04 | 0.01 | 94 | 1014.4 |
| 20260507083004 | 46 | 163 | 1.7 | 3.5 | 0.00 | 0.04 | 0.01 | 94 | 1014.5 |
| 20260507082003 | 42 | 84 | 1.7 | 4.3 | 0.00 | 0.04 | 0.01 | 97 | 1014.5 |
| 20260507081004 | 40 | 142 | 1.7 | 3.5 | 0.00 | 0.04 | 0.01 | 96 | 1014.4 |
| 20260507080004 | 39 | 89 | 1.7 | 3.5 | 0.00 | 0.04 | 0.01 | 96 | 1014.4 |
| 20260507075003 | 39 | 101 | 1.7 | 5.2 | 0.00 | 0.04 | 0.01 | 96 | 1014.4 |
| 20260507074003 | 39 | 151 | 1.7 | 2.6 | 0.00 | 0.04 | 0.01 | 96 | 1014.3 |
| 20260507073003 | 39 | 114 | 0.9 | 2.6 | 0.00 | 0.04 | 0.01 | 95 | 1014.4 |
| 20260507072003 | 38 | 109 | 0.9 | 3.5 | 0.00 | 0.04 | 0.01 | 95 | 1014.4 |